TimeMDT,TemperatureF,Dew PointF,Humidity,Sea Level PressureIn,VisibilityMPH,Wind Direction,Wind SpeedMPH,Gust SpeedMPH,PrecipitationIn,Events,Conditions,WindDirDegrees,DateUTC
12:53 AM,54.0,37.9,55,29.67,10.0,SE,9.2,-,N/A,,Clear,140,2013-09-25 06:53:00
1:53 AM,55.9,37.9,51,29.65,10.0,ESE,8.1,-,N/A,,Clear,120,2013-09-25 07:53:00
2:53 AM,54.0,37.0,53,29.63,10.0,ESE,12.7,-,N/A,,Clear,120,2013-09-25 08:53:00
3:53 AM,52.0,37.9,59,29.61,10.0,ESE,11.5,-,N/A,,Clear,110,2013-09-25 09:53:00
4:53 AM,52.0,37.9,59,29.61,10.0,SE,12.7,-,N/A,,Clear,130,2013-09-25 10:53:00
5:53 AM,50.0,37.0,61,29.61,10.0,SE,8.1,-,N/A,,Clear,130,2013-09-25 11:53:00
6:53 AM,46.9,37.0,68,29.63,10.0,West,3.5,-,N/A,,Clear,280,2013-09-25 12:53:00
7:53 AM,52.0,37.9,59,29.61,10.0,SSE,9.2,-,N/A,,Clear,150,2013-09-25 13:53:00
8:53 AM,57.0,37.0,47,29.59,10.0,SE,11.5,-,N/A,,Clear,130,2013-09-25 14:53:00
9:53 AM,66.0,37.0,34,29.56,10.0,SSE,10.4,-,N/A,,Clear,150,2013-09-25 15:53:00
10:53 AM,75.0,30.0,19,29.50,10.0,SSE,13.8,20.7,N/A,,Clear,150,2013-09-25 16:53:00
11:53 AM,77.0,28.0,17,29.46,10.0,SE,9.2,17.3,N/A,,Clear,130,2013-09-25 17:53:00
12:53 PM,75.9,28.9,18,29.42,10.0,Variable,3.5,-,N/A,,Clear,0,2013-09-25 18:53:00
1:53 PM,77.0,28.9,17,29.37,10.0,South,11.5,-,N/A,,Mostly Cloudy,170,2013-09-25 19:53:00
2:53 PM,75.0,36.0,24,29.37,10.0,SSE,20.7,28.8,N/A,,Clear,150,2013-09-25 20:53:00
3:53 PM,73.9,37.9,27,29.35,10.0,SSE,18.4,26.5,N/A,,Scattered Clouds,150,2013-09-25 21:53:00
4:53 PM,73.0,41.0,31,29.35,10.0,SSE,12.7,-,N/A,,Partly Cloudy,160,2013-09-25 22:53:00
5:53 PM,73.0,33.1,23,29.36,10.0,South,10.4,18.4,N/A,,Clear,190,2013-09-25 23:53:00
6:24 PM,62.6,41.0,45,29.57,10.0,NNW,31.1,43.7,N/A,,Partly Cloudy,330,2013-09-26 00:24:00
6:53 PM,57.9,39.9,51,29.53,10.0,North,16.1,26.5,N/A,,Clear,360,2013-09-26 00:53:00
7:53 PM,55.9,39.0,53,29.55,10.0,NW,13.8,-,N/A,,Clear,320,2013-09-26 01:53:00
8:53 PM,53.1,39.9,61,29.59,10.0,NNW,8.1,-,N/A,,Clear,340,2013-09-26 02:53:00
9:53 PM,51.1,39.9,66,29.56,10.0,WNW,13.8,23.0,N/A,,Clear,300,2013-09-26 03:53:00
10:53 PM,50.0,39.0,66,29.57,10.0,WNW,12.7,-,N/A,,Clear,300,2013-09-26 04:53:00
11:53 PM,48.0,39.0,71,29.58,10.0,WNW,19.6,-,N/A,,Clear,300,2013-09-26 05:53:00